Regional Weather Roundup
Issued by NWS

Home | Current Version | Previous Version | Text Only | Print | Product List | Glossary Off
Versions: 1 2 3 4 5 6 7 8 9 10 11 12 13 14 15 16 17 18 19 20 21 22 23 24 25 26 27 28 29 30 31 32 33 34 35 36 37 38 39 40 41 42 43 44 45 46 47 48 49 50

000
ASUS43 KBIS 031002
RWRND

NORTH DAKOTA REGIONAL WEATHER ROUNDUP
NATIONAL WEATHER SERVICE BISMARCK ND
500 AM CDT FRI JUL 03 2015

NOTE: "FAIR" INDICATES FEW OR NO CLOUDS BELOW 12,000 FEET WITH NO
SIGNIFICANT WEATHER AND/OR OBSTRUCTIONS TO VISIBILITY.


NDZ001>003-009>011-017-031100-
NORTHWEST NORTH DAKOTA

CITY           SKY/WX    TMP DP  RH WIND       PRES   REMARKS
WILLISTON      CLEAR     61  59  93 N5        30.00F FOG
MINOT          CLOUDY    62  60  93 W6        29.98R FOG
$$

NDZ018>021-031>035-040>046-031100-
SOUTHWEST NORTH DAKOTA

CITY           SKY/WX    TMP DP  RH WIND       PRES   REMARKS
BISMARCK       CLOUDY    63  62  97 W3        29.99F FOG
DICKINSON      CLEAR     60  55  83 SW3       30.02S HAZE
GARRISON         N/A     61  59  93 N7        29.99R
HETTINGER ARPT CLEAR     53  52  96 CALM      30.05S FOG
$$

NDZ004>008-012>016-024-026-027-054-031100-
NORTHEAST NORTH DAKOTA

CITY           SKY/WX    TMP DP  RH WIND       PRES   REMARKS
GRAND FORKS    CLOUDY    60  59  96 NW6       29.90R FOG
GRND FRKS AFB  CLEAR     62  61  96 NW6       29.91S FOG
DEVILS LAKE    CLOUDY    61  55  82 NW3       29.94S VSB 3/4
$$

NDZ022-023-025-028>030-036>039-047>053-031100-
SOUTHEAST NORTH DAKOTA

CITY           SKY/WX    TMP DP  RH WIND       PRES   REMARKS
FARGO          MOCLDY    65  62  90 SW6       29.92R
JAMESTOWN      CLOUDY    64  62  93 NW5       29.95S FOG
$$



USA.gov is the U.S. government's official web portal to all federal, state and local government web resources and services.